2024/02/12 00:00:00, 0.0,-0.9
2024/02/12 00:10:00, 0.0,-1.1
2024/02/12 00:20:00, 0.0,-0.8
2024/02/12 00:30:00, 0.0,-1.3
2024/02/12 00:40:00, 0.0,-1.2
2024/02/12 00:50:00, 0.0,-1.1
2024/02/12 01:00:00, 0.0,-0.8
2024/02/12 01:10:00, 0.0,-0.8
2024/02/12 01:20:00, 0.0,-1.1
2024/02/12 01:30:00, 0.0,-1.1
2024/02/12 01:40:00, 0.0,-0.5
2024/02/12 01:50:00, 0.0,-0.9
2024/02/12 02:00:00, 0.0,-0.9
2024/02/12 02:10:00, 0.0,-1.2
2024/02/12 02:20:00, 0.0,-0.9
2024/02/12 02:30:00, 0.0,-1.1
2024/02/12 02:40:00, 0.0,-1.1
2024/02/12 02:50:00, 0.0,-0.7
2024/02/12 03:00:00, 0.0,-0.7
2024/02/12 03:10:00, 0.0,-0.6
2024/02/12 03:20:00, 0.0,-0.5
2024/02/12 03:30:00, 0.0,-0.5
2024/02/12 03:40:00, 0.0,-0.5
2024/02/12 03:50:00, 0.0,-0.4
2024/02/12 04:00:00, 0.0,-0.6
2024/02/12 04:10:00, 0.0,-0.4
2024/02/12 04:20:00, 0.0,-0.6
2024/02/12 04:30:00, 0.0,-0.7
2024/02/12 04:40:00, 0.0,-0.7
2024/02/12 04:50:00, 0.0,-0.6
2024/02/12 05:00:00, 0.0,-0.2
2024/02/12 05:10:00, 0.0,-0.2
2024/02/12 05:20:00, 0.0, 0.1
2024/02/12 05:30:00, 0.0,-0.1
2024/02/12 05:40:00, 0.0,-0.4
2024/02/12 05:50:00, 0.0,-0.7
2024/02/12 06:00:00, 0.0,-0.9
2024/02/12 06:10:00, 0.0,-0.8
2024/02/12 06:20:00, 0.0,-0.8
2024/02/12 06:30:00, 0.0,-0.6
2024/02/12 06:40:00, 0.0,-0.5
2024/02/12 06:50:00, 0.0,-0.7
2024/02/12 07:00:00, 0.0,-0.9
2024/02/12 07:10:00, 0.0,-0.8
2024/02/12 07:20:00, 0.0,-0.7
2024/02/12 07:30:00, 0.0,-0.9
2024/02/12 07:40:00, 0.0,-0.9
2024/02/12 07:50:00, 0.0,-1.0
2024/02/12 08:00:00, 0.0,-0.7
2024/02/12 08:10:00, 0.0,-0.4
2024/02/12 08:20:00, 0.0,-0.3
2024/02/12 08:30:00, 0.0, 0.0
2024/02/12 08:40:00, 0.0, 0.7
2024/02/12 08:50:00, 0.0, 1.4
2024/02/12 09:00:00, 0.0, 1.9
2024/02/12 09:10:00, 0.0, 1.6
2024/02/12 09:20:00, 0.0, 1.2
2024/02/12 09:30:00, 0.0, 1.9
2024/02/12 09:40:00, 0.0, 4.9
2024/02/12 09:50:00, 0.0, 4.3
2024/02/12 10:00:00,---, 6.5
2024/02/12 10:10:00,25.6, 9.3
2024/02/12 10:20:00,25.3,11.7
2024/02/12 10:30:00,24.4, 5.7
2024/02/12 10:40:00,---, 5.3
2024/02/12 10:50:00,24.2, 5.1
2024/02/12 11:00:00,24.2, 9.2
2024/02/12 11:10:00,---, 5.7
2024/02/12 11:20:00, 0.0, 6.2
2024/02/12 11:30:00, 0.0, 6.9
2024/02/12 11:40:00, 0.0, 6.1
2024/02/12 11:50:00,22.7, 6.7
2024/02/12 12:00:00, 0.0, 6.9
2024/02/12 12:10:00, 0.0, 6.3
2024/02/12 12:20:00, 0.0,10.2
2024/02/12 12:30:00,21.7, 9.2
2024/02/12 12:40:00,21.3, 8.2
2024/02/12 12:50:00,---, 6.3
2024/02/12 13:00:00, 0.0, 7.6
2024/02/12 13:10:00, 0.0, 6.1
2024/02/12 13:20:00, 0.0, 5.9
2024/02/12 13:30:00, 0.0,10.8
2024/02/12 13:40:00,19.8, 8.3
2024/02/12 13:50:00,19.8,10.5
2024/02/12 14:00:00,19.4, 8.2
2024/02/12 14:10:00,18.8, 6.0
2024/02/12 14:20:00,18.7, 7.9
2024/02/12 14:30:00,19.3, 9.4
2024/02/12 14:40:00,18.8, 7.8
2024/02/12 14:50:00,18.3, 6.0
2024/02/12 15:00:00,18.7, 8.5
2024/02/12 15:10:00,18.3, 6.3
2024/02/12 15:20:00,18.2, 5.4
2024/02/12 15:30:00,---, 4.7
2024/02/12 15:40:00,18.1, 5.4
2024/02/12 15:50:00, 0.0, 4.8
2024/02/12 16:00:00, 0.0, 4.8
2024/02/12 16:10:00,---, 4.8
2024/02/12 16:20:00, 0.0, 5.0
2024/02/12 16:30:00, 0.0, 4.3
2024/02/12 16:40:00, 0.0, 3.9
2024/02/12 16:50:00, 0.0, 3.2
2024/02/12 17:00:00,18.0, 2.7
2024/02/12 17:10:00, 0.0, 2.6
2024/02/12 17:20:00, 0.0, 2.0
2024/02/12 17:30:00, 0.0, 1.6
2024/02/12 17:40:00, 0.0, 1.1
2024/02/12 17:50:00, 0.0, 1.0
2024/02/12 18:00:00, 0.0, 0.6
2024/02/12 18:10:00, 0.0, 0.3
2024/02/12 18:20:00, 0.0, 0.0
2024/02/12 18:30:00, 0.0,-0.6
2024/02/12 18:40:00, 0.0,-0.5
2024/02/12 18:50:00, 0.0,-0.7
2024/02/12 19:00:00, 0.0,-0.7
2024/02/12 19:10:00, 0.0,-0.7
2024/02/12 19:20:00, 0.0,-0.9
2024/02/12 19:30:00, 0.0,-1.1
2024/02/12 19:40:00, 0.0,-1.4
2024/02/12 19:50:00, 0.0,-1.2
2024/02/12 20:00:00, 0.0,-1.2
2024/02/12 20:10:00, 0.0,-1.4
2024/02/12 20:20:00, 0.0,-1.3
2024/02/12 20:30:00, 0.0,-1.3
2024/02/12 20:40:00, 0.0,-1.0
2024/02/12 20:50:00, 0.0,-0.9
2024/02/12 21:00:00, 0.0,-1.1
2024/02/12 21:10:00, 0.0,-1.1
2024/02/12 21:20:00, 0.0,-1.2
2024/02/12 21:30:00, 0.0,-1.1
2024/02/12 21:40:00, 0.0,-1.2
2024/02/12 21:50:00, 0.0,-1.3
2024/02/12 22:00:00, 0.0,-0.9
2024/02/12 22:10:00, 0.0,-1.4
2024/02/12 22:20:00, 0.0,-0.9
2024/02/12 22:30:00, 0.0,-1.0
2024/02/12 22:40:00, 0.0,-1.2
2024/02/12 22:50:00, 0.0,-1.0
2024/02/12 23:00:00, 0.0,-1.0
2024/02/12 23:10:00, 0.0,-0.8
2024/02/12 23:20:00, 0.0,-0.7
2024/02/12 23:30:00, 0.0,-0.7
2024/02/12 23:40:00, 0.0,-0.6
2024/02/12 23:50:00, 0.0, 0.1
